TimeEDT,TemperatureF,Dew PointF,Humidity,Sea Level PressureIn,VisibilityMPH,Wind Direction,Wind SpeedMPH,Gust SpeedMPH,PrecipitationIn,Events,Conditions,WindDirDegrees,DateUTC
12:56 AM,69.1,62.1,78,30.18,10.0,NNE,8.1,-,N/A,,Clear,30,2013-09-18 04:56:00
1:56 AM,68.0,62.1,81,30.18,10.0,NNE,6.9,-,N/A,,Clear,30,2013-09-18 05:56:00
2:56 AM,66.9,61.0,81,30.17,10.0,NE,9.2,-,N/A,,Partly Cloudy,40,2013-09-18 06:56:00
3:56 AM,66.0,60.1,81,30.17,10.0,NNE,10.4,-,N/A,,Partly Cloudy,30,2013-09-18 07:56:00
4:56 AM,64.9,60.1,84,30.17,10.0,NNE,11.5,-,N/A,,Scattered Clouds,30,2013-09-18 08:56:00
5:56 AM,64.0,59.0,84,30.18,10.0,NNE,9.2,-,N/A,,Partly Cloudy,30,2013-09-18 09:56:00
6:56 AM,63.0,55.0,75,30.20,10.0,NNE,9.2,-,N/A,,Partly Cloudy,30,2013-09-18 10:56:00
7:56 AM,63.0,54.0,72,30.21,10.0,NNE,9.2,-,N/A,,Partly Cloudy,30,2013-09-18 11:56:00
8:56 AM,66.0,53.1,63,30.22,10.0,NE,9.2,-,N/A,,Scattered Clouds,40,2013-09-18 12:56:00
9:56 AM,71.1,53.1,53,30.23,10.0,NNE,15.0,-,N/A,,Scattered Clouds,30,2013-09-18 13:56:00
10:56 AM,75.0,54.0,48,30.23,10.0,NNE,15.0,20.7,N/A,,Scattered Clouds,30,2013-09-18 14:56:00
11:56 AM,77.0,54.0,45,30.21,10.0,NNE,12.7,20.7,N/A,,Scattered Clouds,30,2013-09-18 15:56:00
12:56 PM,79.0,55.0,44,30.20,10.0,North,11.5,17.3,N/A,,Scattered Clouds,10,2013-09-18 16:56:00
1:56 PM,79.0,55.9,45,30.19,10.0,NE,11.5,-,N/A,,Scattered Clouds,40,2013-09-18 17:56:00
2:56 PM,78.1,51.1,39,30.17,10.0,NE,13.8,-,N/A,,Mostly Cloudy,50,2013-09-18 18:56:00
3:56 PM,78.1,51.1,39,30.15,10.0,NE,11.5,-,N/A,,Mostly Cloudy,50,2013-09-18 19:56:00
4:56 PM,77.0,53.1,43,30.15,10.0,ENE,9.2,-,N/A,,Mostly Cloudy,60,2013-09-18 20:56:00
5:56 PM,75.9,52.0,43,30.14,10.0,North,8.1,-,N/A,,Mostly Cloudy,10,2013-09-18 21:56:00
6:56 PM,73.9,54.0,50,30.15,10.0,NE,5.8,-,N/A,,Mostly Cloudy,50,2013-09-18 22:56:00
7:56 PM,71.1,55.9,59,30.15,10.0,NE,4.6,-,N/A,,Mostly Cloudy,40,2013-09-18 23:56:00
8:56 PM,69.1,55.9,63,30.16,10.0,NE,5.8,-,N/A,,Mostly Cloudy,40,2013-09-19 00:56:00
9:56 PM,69.1,55.0,61,30.17,10.0,NNE,5.8,-,N/A,,Scattered Clouds,20,2013-09-19 01:56:00
10:56 PM,68.0,55.9,65,30.17,10.0,NE,5.8,-,N/A,,Scattered Clouds,40,2013-09-19 02:56:00
11:56 PM,66.9,57.0,70,30.16,10.0,NNE,3.5,-,N/A,,Scattered Clouds,30,2013-09-19 03:56:00